Location: Chervonnoye
(48.6000°N, 34.4000°E)
Time: 12:59:24
(UTC+00:00)

deb Kosmos-2237 - Pass Details

Date: 22 June 2021
Orbit: 850 x 1045 km, 71.0° (Epoch: 25 July)

Event Time Altitude Azimuth Distance (km) Brightness Sun altitude
Rises 21:17:26 0° 282° (WNW) 3,665 ? -17.7°
Reaches altitude 10° 21:21:34 10° 308° (NW) 2,764 ? -17.8°
Maximum altitude 21:24:37 14° 337° (NNW) 2,541 ? -17.8°
Drops below altitude 10° 21:27:44 10° 6° (N) 2,821 ? -17.9°
Sets 21:32:03 0° 31° (NNE) 3,802 ? -17.9°
